Printer-friendly version

IAU Minor Planet Center

Minor Planet Center

(6) Hebe

Orbital Elements

The following orbital elements are taken from MPC 24219:
    (6) Hebe
Epoch 2005 Jan. 30.0 TT = JDT 2453400.5  (M-c)          Bowell
M 169.94840              (2000.0)            P               Q
n   0.26067557     Peri.  239.24257     +0.93207090     -0.32112275
a   2.4269966      Node   138.81775     +0.35192738     +0.91244330
e   0.2010681      Incl.   14.75521     -0.08597066     +0.25362846
P   3.78           H    5.71          G   0.24
From 3581 observations at 59 oppositions, 1869-1994, mean residual 0".53.
An explanation of the orbital elements is available.

These orbital elements are also available in forms suitable for loading into a number of popular planetarium-type software programs.


Ephemeris

The following ephemeris is at intervals of five days. A daily ephemeris covering the same time interval is also available.

Personalized ephemerides for this object (and others) can be generated using the MPES.

Date    TT    R. A. (2000) Decl.     Delta      r     Elong.  Phase     V
 
2005 01 21    14 04.62   +00 25.2    2.700    2.907    92.1    19.8    11.1
2005 01 26    14 08.19   +00 36.9    2.632    2.909    96.3    19.7    11.0
2005 01 31    14 11.33   +00 52.2    2.564    2.910   100.5    19.4    10.9
2005 02 05    14 14.02   +01 11.4    2.497    2.911   104.9    19.1    10.9
2005 02 10    14 16.21   +01 34.5    2.432    2.912   109.4    18.6    10.8
2005 02 15    14 17.87   +02 01.3    2.369    2.913   113.9    18.1    10.7
2005 02 20    14 18.98   +02 31.8    2.308    2.914   118.6    17.3    10.7
2005 02 25    14 19.51   +03 05.7    2.251    2.914   123.4    16.5    10.6
2005 03 02    14 19.44   +03 42.9    2.196    2.915   128.2    15.5    10.5
2005 03 07    14 18.77   +04 22.9    2.146    2.915   133.0    14.4    10.4
2005 03 12    14 17.48   +05 05.2    2.101    2.915   137.9    13.2    10.3
2005 03 17    14 15.60   +05 49.1    2.061    2.915   142.7    12.0    10.2
2005 03 22    14 13.15   +06 34.0    2.026    2.914   147.3    10.6    10.2
2005 03 27    14 10.18   +07 18.8    1.997    2.914   151.6     9.4    10.1
2005 04 01    14 06.75   +08 02.8    1.975    2.913   155.3     8.2    10.0
2005 04 06    14 02.94   +08 45.0    1.960    2.912   158.2     7.3    10.0
2005 04 11    13 58.83   +09 24.4    1.951    2.911   159.6     6.9     9.9
2005 04 16    13 54.53   +10 00.0    1.949    2.910   159.5     7.0     9.9
2005 04 21    13 50.17   +10 31.1    1.954    2.909   157.7     7.5    10.0
2005 04 26    13 45.85   +10 57.1    1.966    2.907   154.6     8.5    10.0
2005 05 01    13 41.68   +11 17.4    1.984    2.905   150.8     9.7    10.1
2005 05 06    13 37.77   +11 32.0    2.009    2.904   146.5    11.1    10.2
2005 05 11    13 34.19   +11 40.5    2.039    2.901   141.9    12.4    10.2
2005 05 16    13 31.04   +11 43.1    2.074    2.899   137.3    13.7    10.3
2005 05 21    13 28.36   +11 40.1    2.114    2.897   132.6    14.9    10.4
2005 05 26    13 26.20   +11 31.7    2.159    2.894   128.0    16.0    10.5
2005 05 31    13 24.59   +11 18.3    2.207    2.891   123.4    17.0    10.5
2005 06 05    13 23.52   +11 00.4    2.258    2.888   118.9    17.9    10.6
2005 06 10    13 23.01   +10 38.3    2.313    2.885   114.5    18.7    10.7
2005 06 15    13 23.05   +10 12.5    2.369    2.882   110.2    19.3    10.8
2005 06 20    13 23.63   +09 43.4    2.427    2.879   106.0    19.8    10.8
2005 06 25    13 24.72   +09 11.5    2.487    2.875   102.0    20.2    10.9
2005 06 30    13 26.30   +08 37.0    2.547    2.871    98.0    20.5    10.9
2005 07 05    13 28.34   +08 00.3    2.608    2.867    94.1    20.7    11.0
2005 07 10    13 30.83   +07 21.7    2.670    2.863    90.4    20.8    11.0

Back to Bright Minor Planets

Astronomical Headlines Index

MPC


Valid HTML 4.01!